Fort Wayne, IN

2:29 AM EST on November 18, 2019 (GMT -0500)
Fort Wayne International

Weather History for KFWA - September, 2019

Change the Weather History Date:

Friday, September 13, 2019

  Actual Average Record
Temperature  
Mean Temperature 75 °F 66 °F  
Max Temperature 87 °F 77 °F 97 °F (1939)
Min Temperature 62 °F 54 °F 38 °F (1964)
Degree Days  
Heating Degree Days 0 2  
Month to date heating degree days 10 19  
Since 1 July heating degree days 11 31  
Cooling Degree Days 10 3  
Month to date cooling degree days 60 53  
Year to date cooling degree days 898 770  
Growing Degree Days 28 (Base 50)    
Moisture  
Dew Point 68 °F    
Average Humidity 78    
Maximum Humidity 100    
Minimum Humidity 55    
Precipitation  
Precipitation 0.51 in 0.09 in 1.94 in (1977)
Month to date precipitation 0.82 1.23  
Year to date precipitation 29.09 28.07  
Sea Level Pressure  
Sea Level Pressure 30.07 in    
Wind  
Wind Speed 11 mph (South)    
Max Wind Speed 28 mph    
Max Gust Speed 41 mph    
Visibility 7 miles    
Events Rain , Thunderstorm    
T = Trace of Precipitation, MM = Missing Value Source: NWS Daily Summary

Daily Weather History Graph

Daily Weather History Graph

Search for Another Location

Airport or City:

Astronomy

Sep. 13, 2019 Rise Set
Actual Time 7:19 AM EDT 7:53 PM EDT
Civil Twilight 6:51 AM EDT 8:21 PM EDT
Nautical Twilight 6:18 AM EDT 8:53 PM EDT
Astronomical Twilight 5:45 AM EDT 9:27 PM EDT
Moon 8:07 PM EDT (9/13) 6:34 AM EDT (9/13)
Length of Visible Light 13h 29m
Length of Day
12h 34m
Full, 100% of the Moon is Illuminated
Sep 13
Full
Sep 14
Full
Sep 21
Last Quarter
Sep 28
New
Oct 5
First Quarter

Hourly Weather History & Observations

Time (EDT) Temp. Heat Index Dew Point Humidity Pressure Visibility Wind Dir Wind Speed Gust Speed Precip Events Conditions
12:54 AM 70.0 °F - 68.0 °F 93% 30.13 in 4.0 mi East 11.5 mph - N/A   Overcast
1:18 AM 70.0 °F - 69.1 °F 97% 30.15 in 4.0 mi East 9.2 mph - 0.00 in Rain , Thunderstorm Light Rain
1:51 AM 69.8 °F - 68.0 °F 94% 30.13 in 4.0 mi East 8.1 mph - 0.00 in   Overcast
1:54 AM 69.1 °F - 68.0 °F 96% 30.11 in 5.0 mi East 8.1 mph - 0.00 in   Mostly Cloudy
2:54 AM 69.1 °F - 66.9 °F 93% 30.11 in 8.0 mi East 9.2 mph - N/A   Overcast
3:54 AM 68.0 °F - 66.9 °F 96% 30.09 in 7.0 mi East 8.1 mph - N/A   Overcast
4:17 AM 68.0 °F - 66.9 °F 96% 30.10 in 6.0 mi East 5.8 mph - N/A   Overcast
4:54 AM 68.0 °F - 68.0 °F 100% 30.08 in 2.5 mi ESE 8.1 mph - N/A   Overcast
5:54 AM 69.1 °F - 69.1 °F 100% 30.07 in 2.0 mi SE 5.8 mph - N/A   Overcast
6:54 AM 70.0 °F - 69.1 °F 97% 30.07 in 3.0 mi SE 6.9 mph - N/A   Overcast
7:19 AM 69.1 °F - 68.0 °F 96% 30.09 in 2.5 mi SE 4.6 mph - N/A   Mostly Cloudy
7:54 AM 69.1 °F - 68.0 °F 96% 30.08 in 2.5 mi SE 4.6 mph - N/A   Mostly Cloudy
8:20 AM 70.0 °F - 68.0 °F 93% 30.08 in 3.0 mi SSE 4.6 mph - N/A   Mostly Cloudy
8:54 AM 72.0 °F - 69.1 °F 91% 30.07 in 6.0 mi South 8.1 mph - N/A   Mostly Cloudy
9:54 AM 77.0 °F - 70.0 °F 79% 30.07 in 10.0 mi South 10.4 mph 20.7 mph N/A   Mostly Cloudy
10:54 AM 81.0 °F 84.9 °F 71.1 °F 72% 30.07 in 10.0 mi SSW 15.0 mph 23.0 mph N/A   Scattered Clouds
11:54 AM 82.0 °F 86.3 °F 71.1 °F 69% 30.06 in 10.0 mi SSW 16.1 mph 23.0 mph N/A   Partly Cloudy
12:54 PM 84.9 °F 90.7 °F 72.0 °F 65% 30.04 in 10.0 mi SSW 17.3 mph 25.3 mph N/A   Scattered Clouds
1:54 PM 84.9 °F 90.7 °F 72.0 °F 65% 30.03 in 10.0 mi WSW 15.0 mph 28.8 mph N/A   Scattered Clouds
2:37 PM 87.1 °F 93.6 °F 72.0 °F 61% 30.02 in 10.0 mi SW 19.6 mph 29.9 mph N/A Thunderstorm Mostly Cloudy
2:54 PM 84.9 °F 90.1 °F 71.1 °F 63% 30.00 in 10.0 mi WSW 19.6 mph 28.8 mph 0.00 in Rain , Thunderstorm Light Thunderstorms and Rain
3:41 PM 75.0 °F - 72.0 °F 90% 30.04 in 0.8 mi South 27.6 mph 35.7 mph 0.10 in Rain , Thunderstorm Heavy Thunderstorms and Rain
3:47 PM 75.9 °F - 69.1 °F 79% 30.02 in 1.0 mi SSW 19.6 mph 41.4 mph 0.20 in Rain , Thunderstorm Heavy Thunderstorms and Rain
3:54 PM 78.1 °F - 71.1 °F 79% 30.00 in 8.0 mi SW 9.2 mph 41.4 mph 0.21 in Rain , Thunderstorm Light Thunderstorms and Rain
4:09 PM 82.0 °F 88.6 °F 75.0 °F 79% 30.02 in 10.0 mi SW 12.7 mph - 0.00 in   Mostly Cloudy
4:54 PM 84.0 °F 89.0 °F 71.1 °F 65% 29.99 in 10.0 mi WSW 18.4 mph 31.1 mph 0.00 in   Mostly Cloudy
5:54 PM 82.9 °F 84.6 °F 64.9 °F 54% 30.01 in 10.0 mi WSW 17.3 mph 26.5 mph N/A   Scattered Clouds
6:54 PM 80.1 °F 81.9 °F 64.9 °F 60% 30.02 in 10.0 mi WSW 9.2 mph - N/A   Partly Cloudy
7:54 PM 77.0 °F - 61.0 °F 58% 30.04 in 10.0 mi WSW 8.1 mph - N/A   Scattered Clouds
8:54 PM 73.0 °F - 63.0 °F 71% 30.07 in 10.0 mi West 9.2 mph - N/A   Partly Cloudy
9:54 PM 70.0 °F - 59.0 °F 68% 30.09 in 10.0 mi West 8.1 mph - N/A   Partly Cloudy
10:54 PM 68.0 °F - 59.0 °F 73% 30.12 in 10.0 mi West 9.2 mph 19.6 mph N/A   Partly Cloudy
11:54 PM 63.0 °F - 59.0 °F 87% 30.13 in 10.0 mi West 6.9 mph - N/A   Partly Cloudy